Location: Newark
(23.1300°N, 73.6109°E)
Time: 17:17:26
(UTC+00:00)

Hubble Space Telescope - Pass Details

Date: 01 August 2021
Orbit: 535 x 539 km, 28.5° (Epoch: 27 September)

Event Time Altitude Azimuth Distance (km) Brightness Sun altitude
Rises 14:25:51 0° 289° (WNW) 2,671 6.7 -9.0°
Reaches altitude 10° 14:28:09 10° 294° (WNW) 1,779 5.1 -9.5°
Maximum altitude 14:32:11 56° 13° (NNE) 633 1.2 -10.4°
Enters shadow 14:35:40 13° 90° (E) 1,564 2.6 -11.1°
